Location: Bas Lanzent
(48.1360°N, 3.5871°W)
Time: 17:01:47
(UTC+00:00)

METEOR-M - Pass Details

Date: 18 February 2020
Orbit: 815 x 820 km, 98.4° (Epoch: 07 April)

Event Time Altitude Azimuth Distance (km) Brightness Sun altitude
Rises 05:40:29 0° 14° (NNE) 3,360 7.5 -16.7°
Reaches altitude 10° 05:42:50 10° 14° (NNE) 2,423 6.8 -16.3°
Maximum altitude 05:48:13 89° 290° (WNW) 825 4.1 -15.4°
Drops below altitude 10° 05:53:33 10° 197° (SSW) 2,403 6.4 -14.5°
Sets 05:55:53 0° 197° (SSW) 3,330 7.2 -14.2°
